Location: Poughquag
(41.6090°N, 73.6820°W)
Time: 04:13:18
(UTC-04:00)

Vanguard 2 - Pass Details

Date: 31 May 2020
Orbit: 552 x 2938 km, 32.9° (Epoch: 06 July)

Event Time Altitude Azimuth Distance (km) Brightness Sun altitude
Rises 22:13:21 0° 261° (W) 5,274 12.2 -16.4°
Reaches altitude 10° 22:17:38 10° 256° (WSW) 3,864 11.4 -16.9°
Maximum altitude 22:26:13 42° 190° (S) 1,535 8.7 -17.8°
Enters shadow 22:28:46 29° 143° (SE) 1,682 8.6 -18.1°
